User: anonymous   Login
Location: Boitzum
(52.1496°N, 9.6943°E)
Time: 08:09:30
(UTC+00:00)
Language:

BREEZE-M DEB (TANK) - Orbit

View from above orbital plane
View from above orbital plane
View from above satellite
View from above satellite

Ground track
Ground track

The orbit is defined by the following mean orbital elements,

1 37845U          26072.91468941 +.00000000 +00000-0 +82158-3 0 00006
2 37845  49.7100  41.3122 4512298 153.2589 239.7739  6.45077129    08
Epoch (UTC): 13 March 2026 21:57:09
Eccentricity: 0.4512298
inclination: 49.7100°
perigee height: 311 km
apogee height: 11312 km
right ascension of ascending node: 41.3122°
argument of perigee: 153.2589°
revolutions per day: 6.45077129
mean anomaly at epoch: 239.7739°

The dashed part of the orbit path shows where the satellite is in the earth's shadow,  

DLR